Orbital Elements
The following improved orbital elements by Kenji Muraoka, are
from 116 observations 1983 to 1996, perturbations by 9 Plantes,
Moon and 5 minor planets were taken into account.
The mean residual is +/- 0.91 arc seconds.
Epoch = 1999 May 22.0 TT
T = 1999 June 8.09295 TT
Peri. = 321.84748
Node = 265.55574 (2000.0)
Incl. = 22.11465
q = 0.1396744 AU
e = 0.8901330
|